GSAT-14

Last updated on Tue Sep 22 2026 00:03:13 GMT+0000 (Coordinated Universal Time)

1 39498U 14001A 26263.82336299 -.00000081 00000+0 00000+0 0 9998 2 39498 0.0201 196.0981 0005319 23.5544 150.4878 1.00272704 46335
UTC large
Height (km)
Speed (km/s)
/
Latitude / Longitude
Inclination (degrees)
Orbital Period (minutes)
Azimuth
Elevation
Range (km)
Doppler Factor

Next 0 passes for location: London (51.5072 / 0.1276)

No passes found over London.
GSAT-14